Content
SEND FEEDBACK

Daily
Averages
Monthly
Summary
United States of America

LAMONI, IOWA


Home > North America > United States > Iowa
Elevation: 347 meters     Latitude: 40 37N     Longitude: 093 57W

WEATHER
 
SELECT A DAY
Number of Records: 171,176;   Date Range: 1/1/95 - 7/20/14
 
SHARE

PRINT THIS DATA

[ ← Previous Day ]
WEATHER ALMANAC - 31 JANUARY, 2013
[ Next Day → ]
[ °F ]   °C
Weather ElementAverageHighLow
Temperature-13.9 °C-10 °C (1:53 am)-18.3 °C (10:53 pm)
Dewpoint-19 °C-13.3 °C (1:53 am)-22.8 °C (10:53 pm)
Humidity66.4 %80 % (2:53 am)60 % (4:53 pm)
Barometer1022.7 hPa1031.8 hPa (11:53 pm)1014.2 hPa (1:53 am)
Wind Speed28.2 km/h42.6 km/h (1:05 pm)
Wind Gust55.5 km/h (12:53 pm)
Weather ElementAverage
Visibility15.1 km
Wind DirectionWNW (300.7 °)

Weather ElementTotal
Precipitation---
Heating Degree Days32.5 (Base 18.3)
Averaged from 27 records on 31 January, 2013
WEATHER CONDITIONS BREAKOUT
WIND DIRECTION BREAKOUT
WEATHER BY HOUR - 31 JANUARY, 2013
[ °F ]   °C
Local TimeTemperatureDewpointHumidityBarometerVisibilityWind DirectionWind SpeedGust SpeedPrecipitationEventsConditions
1:53 AM-10 °C-13.3 °C77 %1014.2 hPa16.1 kmWest (280°)18.5 km/hClear
2:53 AM-11.1 °C-13.9 °C80 %1014.6 hPa16.1 kmWest (280°)16.7 km/hClear
3:53 AM-12.2 °C-15 °C80 %1014.6 hPa16.1 kmWest (280°)14.8 km/hClear
4:53 AM-11.7 °C-15 °C77 %1014.9 hPa16.1 kmWNW (300°)22.2 km/hOvercast
5:53 AM-11.7 °C-15.6 °C73 %1015.9 hPa16.1 kmWNW (300°)29.6 km/hOvercast
6:53 AM-12.2 °C-16.7 °C70 %1016.9 hPa16.1 kmNW (310°)22.2 km/hOvercast
7:53 AM-13.9 °C-19.4 °C64 %1017.6 hPa16.1 kmNW (320°)25.9 km/h40.7 km/hClear
8:53 AM-13.9 °C-20 °C61 %1019 hPa16.1 kmNW (320°)29.6 km/hClear
9:53 AM-13.3 °C-19.4 °C61 %1020.3 hPa16.1 kmNW (310°)31.5 km/hClear
10:53 AM-12.8 °C-18.9 °C61 %1021.7 hPa16.1 kmWNW (300°)33.3 km/hScattered Clouds
11:53 AM-12.8 °C-18.3 °C64 %1022.4 hPa16.1 kmNW (320°)38.9 km/h51.8 km/hMostly Cloudy
12:53 PM-13.3 °C-19.4 °C61 %1023.4 hPa9.7 kmNW (310°)40.7 km/h55.5 km/hSnowBlowing Snow
1:05 PM-13 °C-19 °C62 %1021.3 hPa16.1 kmNW (310°)42.6 km/h53.8 km/hOvercast
2:06 PM-13 °C-19 °C62 %1021.7 hPa16.1 kmNW (310°)35.2 km/h51.8 km/hScattered Clouds
2:15 PM-13 °C-19 °C62 %1022 hPa16.1 kmNW (310°)33.3 km/h42.6 km/hMostly Cloudy
2:32 PM-13 °C-18 °C67 %1022.4 hPa3.2 kmWNW (290°)42.6 km/h50.1 km/h0 mmSnowLight Snow
2:43 PM-13 °C-19 °C62 %1022.4 hPa9.7 kmWNW (300°)33.3 km/h50.1 km/h0 mmHaze
2:53 PM-13.9 °C-19.4 °C64 %1025.1 hPa16.1 kmWNW (300°)37 km/h50.1 km/h0 mmOvercast
3:53 PM-14.4 °C-20 °C63 %1026.1 hPa14.5 kmNW (310°)40.7 km/h53.8 km/hScattered Clouds
4:53 PM-14.4 °C-20.6 °C60 %1026.8 hPa16.1 kmNW (310°)24.1 km/h44.4 km/hClear
5:53 PM-15.6 °C-21.7 °C60 %1027.8 hPa16.1 kmNW (320°)25.9 km/hClear
6:53 PM-16.1 °C-21.7 °C63 %1028.4 hPa16.1 kmWNW (300°)27.8 km/hClear
7:53 PM-16.7 °C-21.7 °C66 %1029.5 hPa16.1 kmWNW (300°)22.2 km/hClear
8:53 PM-17.2 °C-22.2 °C66 %1030.5 hPa16.1 kmWNW (290°)18.5 km/hClear
9:53 PM-17.2 °C-22.2 °C66 %1030.5 hPa16.1 kmWNW (290°)16.7 km/hClear
10:53 PM-18.3 °C-22.8 °C69 %1031.5 hPa16.1 kmWest (270°)16.7 km/hClear
11:53 PM-18.3 °C-22.2 °C72 %1031.8 hPa16.1 kmWest (280°)18.5 km/hClear
Hourly data recorded from KLWD, located 0 kilometers away from Lamoni, Iowa







STORIES FROM OUR PARTNERS